Location: Fauquembergues
(50.6005°N, 2.0987°E)
Time: 20:02:11
(UTC+00:00)

ARIANE 5 R/B - Pass Details

Date: 14 July 2020
Orbit: 749 x 794 km, 98.6° (Epoch: 14 August)

Event Time Altitude Azimuth Distance (km) Brightness Sun altitude
Rises 02:49:45 0° 15° (NNE) 3,235 7.1 -8.4°
Reaches altitude 10° 02:52:03 10° 17° (NNE) 2,311 6.2 -8.2°
Maximum altitude 02:57:09 81° 104° (ESE) 786 2.6 -7.7°
Drops below altitude 10° 03:02:17 10° 193° (SSW) 2,323 4.5 -7.1°
Enters shadow 03:03:30 - 194° (SSW) 2,807 4.9 -7.0°
